Change the Weather History Date:

Thursday, September 12, 2013

  Actual Average Record
Temperature  
Mean Temperature 78 °F -  
Max Temperature 86 °F 0 °F 89 °F (2005)
Min Temperature 69 °F - 46 °F (1999)
Cooling Degree Days 12    
Growing Degree Days 28 (Base 50)    
Moisture  
Dew Point 68 °F    
Average Humidity 85    
Maximum Humidity 94    
Minimum Humidity 65    
Precipitation  
Precipitation 0.47 in - - ()
Sea Level Pressure  
Sea Level Pressure 29.87 in    
Wind  
Wind Speed 3 mph (SSE)    
Max Wind Speed 18 mph    
Max Gust Speed 29 mph    
Visibility 5 miles    
Events Rain , Thunderstorm    
Averages and records for this station are not official NWS values.
T = Trace of Precipitation, MM = Missing Value Source: NWS Daily Summary

Daily Weather History Graph

Daily Weather History Graph

Search for Another Location

Airport or City:

Trip Planner

Search our weather history database for the weather conditions in past years. The results will help you decide how hot, cold, wet, or windy it might be!

Date:

Astronomy

Sep. 12, 2013 Rise Set
Actual Time 6:45 AM EDT 7:20 PM EDT
Civil Twilight 6:18 AM EDT 7:47 PM EDT
Nautical Twilight 5:46 AM EDT 8:19 PM EDT
Astronomical Twilight 5:13 AM EDT 8:52 PM EDT
Moon 2:10 PM EDT (9/12) No Moon Set
Length of Visible Light 13h 29m
Length of Day
12h 34m
Waxing Crescent, 50% of the Moon is Illuminated
Sep 12
Waxing Crescent
Sep 12
First Quarter
Sep 19
Full
Sep 26
Last Quarter
Oct 4
New

Hourly Weather History & Observations

Time (EDT) Temp. Heat Index Dew Point Humidity Pressure Visibility Wind Dir Wind Speed Gust Speed Precip Events Conditions
12:53 AM 73.0 °F - 70.0 °F 90% 29.98 in 6.0 mi Calm Calm - N/A   Scattered Clouds
1:53 AM 72.0 °F - 69.1 °F 91% 29.97 in 6.0 mi Calm Calm - N/A   Clear
2:53 AM 70.0 °F - 68.0 °F 93% 29.95 in 4.0 mi Calm Calm - N/A   Clear
3:53 AM 69.1 °F - 66.9 °F 93% 29.95 in 3.0 mi Calm Calm - N/A   Clear
4:53 AM 70.0 °F - 68.0 °F 93% 29.94 in 3.0 mi Calm Calm - N/A   Scattered Clouds
5:53 AM 70.0 °F - 66.9 °F 90% 29.95 in 3.0 mi Calm Calm - N/A   Mostly Cloudy
6:02 AM 69.8 °F - 66.2 °F 88% 29.95 in 2.5 mi Calm Calm - N/A   Mostly Cloudy
6:32 AM 69.8 °F - 66.2 °F 88% 29.95 in 2.0 mi Calm Calm - N/A   Clear
6:39 AM 69.8 °F - 66.2 °F 88% 29.95 in 1.8 mi Calm Calm - N/A   Clear
6:53 AM 69.1 °F - 66.9 °F 93% 29.95 in 1.5 mi Calm Calm - N/A   Partly Cloudy
7:50 AM 73.4 °F - 69.8 °F 88% 29.95 in 2.0 mi Calm Calm - N/A   Partly Cloudy
7:53 AM 73.0 °F - 70.0 °F 90% 29.95 in 2.5 mi Calm Calm - N/A   Clear
8:13 AM 75.2 °F - 69.8 °F 83% 29.94 in 3.0 mi SE 3.5 mph - N/A   Haze
8:53 AM 79.0 °F - 71.1 °F 77% 29.91 in 6.0 mi Calm Calm - N/A   Haze
9:06 AM 80.6 °F 84.6 °F 71.6 °F 74% 29.92 in 7.0 mi Calm Calm - N/A Thunderstorm Thunderstorm
9:33 AM 73.4 °F - 68.0 °F 83% 29.95 in 4.0 mi NW 18.4 mph 25.3 mph 0.00 in Rain , Thunderstorm Light Thunderstorms and Rain
9:37 AM 71.6 °F - 66.2 °F 83% 29.94 in 2.5 mi NW 12.7 mph 25.3 mph 0.04 in Rain , Thunderstorm Thunderstorms and Rain
9:51 AM 69.8 °F - 66.2 °F 88% 29.93 in - SW 3.5 mph - 0.06 in Thunderstorm Thunderstorm
9:54 AM 70.0 °F - 66.0 °F 87% 29.93 in 4.0 mi South 3.5 mph - 0.06 in Rain , Thunderstorm Light Thunderstorms and Rain
10:12 AM 69.8 °F - 66.2 °F 88% 29.93 in 1.8 mi SE 5.8 mph - 0.10 in Rain , Thunderstorm Heavy Thunderstorms and Rain
10:20 AM 69.8 °F - 66.2 °F 88% 29.93 in 2.5 mi East 3.5 mph - 0.11 in Rain , Thunderstorm Light Rain
10:26 AM 69.8 °F - 66.2 °F 88% 29.92 in 10.0 mi East 3.5 mph - 0.11 in Rain Light Rain
10:53 AM 72.0 °F - 68.0 °F 87% 29.92 in 10.0 mi Calm Calm - 0.11 in   Partly Cloudy
11:53 AM 79.0 °F - 73.0 °F 82% 29.89 in 7.0 mi Variable 4.6 mph - N/A   Partly Cloudy
12:53 PM 84.0 °F 90.2 °F 73.0 °F 69% 29.85 in 7.0 mi SSW 6.9 mph - N/A   Clear
1:53 PM 86.0 °F 93.0 °F 73.0 °F 65% 29.82 in 7.0 mi Variable 3.5 mph - N/A   Mostly Cloudy
2:38 PM 84.2 °F 89.6 °F 71.6 °F 66% 29.81 in 8.0 mi WSW 3.5 mph - N/A Thunderstorm Thunderstorm
2:53 PM 81.0 °F 84.9 °F 71.1 °F 72% 29.81 in 4.0 mi SW 17.3 mph 28.8 mph 0.01 in Rain , Thunderstorm Thunderstorms and Rain
3:00 PM 75.2 °F - 64.4 °F 69% 29.80 in 1.5 mi Variable 5.8 mph 28.8 mph 0.00 in Rain , Thunderstorm Light Thunderstorms and Rain
3:10 PM 75.2 °F - 66.2 °F 73% 29.79 in 10.0 mi South 9.2 mph 16.1 mph 0.00 in Thunderstorm Thunderstorm
3:53 PM 84.0 °F 89.0 °F 71.1 °F 65% 29.75 in 10.0 mi SE 5.8 mph - 0.00 in   Clear
4:20 PM 80.6 °F 84.6 °F 71.6 °F 74% 29.75 in 10.0 mi South 9.2 mph - N/A Thunderstorm Clear
4:34 PM 69.8 °F - 66.2 °F 88% 29.82 in 1.0 mi Variable 5.8 mph 28.8 mph 0.22 in Rain , Thunderstorm Heavy Thunderstorms and Rain
4:36 PM 69.8 °F - 66.2 °F 88% 29.81 in 0.8 mi SSW 6.9 mph 28.8 mph 0.24 in Rain , Thunderstorm Heavy Thunderstorms and Rain
4:43 PM 69.8 °F - 66.2 °F 88% 29.79 in 0.8 mi East 10.4 mph - 0.28 in Rain , Thunderstorm Heavy Thunderstorms and Rain
4:45 PM 69.8 °F - 66.2 °F 88% 29.79 in 1.2 mi East 11.5 mph - 0.28 in Rain , Thunderstorm Heavy Thunderstorms and Rain
4:49 PM 69.8 °F - 66.2 °F 88% 29.80 in 2.5 mi ESE 5.8 mph - 0.28 in Rain , Thunderstorm Light Thunderstorms and Rain
4:53 PM 69.1 °F - 66.9 °F 93% 29.80 in 4.0 mi SSE 6.9 mph - 0.29 in Rain , Thunderstorm Light Thunderstorms and Rain
5:28 PM 71.6 °F - 68.0 °F 88% 29.80 in 5.0 mi SE 4.6 mph - 0.00 in   Scattered Clouds
5:53 PM 72.0 °F - 68.0 °F 87% 29.79 in 10.0 mi SE 4.6 mph - 0.00 in   Clear
6:53 PM 71.1 °F - 68.0 °F 90% 29.77 in 8.0 mi Calm Calm - N/A   Clear
7:53 PM 70.0 °F - 66.9 °F 90% 29.77 in 7.0 mi Calm Calm - N/A   Partly Cloudy
8:53 PM 69.1 °F - 66.9 °F 93% 29.76 in 5.0 mi Calm Calm - N/A   Partly Cloudy
9:24 PM 69.8 °F - 68.0 °F 94% 29.78 in 4.0 mi WSW 3.5 mph - N/A   Overcast
9:53 PM 70.0 °F - 68.0 °F 93% 29.78 in 4.0 mi Calm Calm - N/A   Overcast
10:53 PM 70.0 °F - 66.9 °F 90% 29.77 in 9.0 mi Calm Calm - N/A   Overcast
11:53 PM 69.1 °F - 66.0 °F 90% 29.75 in 10.0 mi Calm Calm - 0.00 in   Overcast